STARLINK Z

Last updated on Jan. 16, 2020, 12:02 a.m. UTC

1 44937U 20001Z   20015.58334491  .00145807  00000-0  67775-3 0  9995
2 44937  53.0005 354.7658 0001006 108.7835 313.4190 15.82467080  1350

Satellite is not in orbit.